Villas, NJ

2:08 AM EST on February 14, 2016 (GMT -0500)
Cape May County

Weather History for KWWD - July, 2012

Change the Weather History Date:

Friday, July 20, 2012

  Actual Average Record
Temperature  
Mean Temperature 74 °F -  
Max Temperature 80 °F 79 °F 91 °F (2013)
Min Temperature 68 °F 65 °F 59 °F (1997)
Cooling Degree Days 9    
Growing Degree Days 24 (Base 50)    
Moisture  
Dew Point 69 °F    
Average Humidity 84    
Maximum Humidity 94    
Minimum Humidity 78    
Precipitation  
Precipitation 1.97 in - - ()
Sea Level Pressure  
Sea Level Pressure 29.91 in    
Wind  
Wind Speed 9 mph (NE)    
Max Wind Speed 22 mph    
Max Gust Speed 32 mph    
Visibility 8 miles    
Events Thunderstorm    
Averages and records for this station are not official NWS values.
T = Trace of Precipitation, MM = Missing Value Source: NWS Daily Summary

Daily Weather History Graph

Daily Weather History Graph

Search for Another Location

Airport or City:

Trip Planner

Search our weather history database for the weather conditions in past years. The results will help you decide how hot, cold, wet, or windy it might be!

Date:

Astronomy

Jul. 20, 2012 Rise Set
Actual Time 5:50 AM EDT 8:21 PM EDT
Civil Twilight 5:19 AM EDT 8:51 PM EDT
Nautical Twilight 4:41 AM EDT 9:29 PM EDT
Astronomical Twilight 3:58 AM EDT 10:12 PM EDT
Moon 7:23 AM EDT (7/20) 9:01 PM EDT (7/20)
Length of Visible Light 15h 32m
Length of Day
14h 30m
New Moon, 2% of the Moon is Illuminated
Jul 20
New Moon
Jul 26
First Quarter
Aug 1
Full
Aug 9
Last Quarter
Aug 17
New

Hourly Weather History & Observations

Time (EDT) Temp. Heat Index Dew Point Humidity Pressure Visibility Wind Dir Wind Speed Gust Speed Precip Events Conditions
12:15 AM 77.0 °F - 71.6 °F 83% 29.90 in 10.0 mi East 9.2 mph - N/A   Mostly Cloudy
12:35 AM 77.0 °F - 71.6 °F 83% 29.90 in 10.0 mi East 9.2 mph - N/A   Mostly Cloudy
12:55 AM 77.0 °F - 73.4 °F 89% 29.90 in 10.0 mi ENE 9.2 mph - N/A   Scattered Clouds
1:15 AM 77.0 °F - 73.4 °F 89% 29.90 in 9.0 mi East 9.2 mph - N/A   Partly Cloudy
1:35 AM 77.0 °F - 73.4 °F 89% 29.90 in 7.0 mi East 8.1 mph - N/A   Mostly Cloudy
1:55 AM 77.0 °F - 73.4 °F 89% 29.89 in 8.0 mi ENE 8.1 mph - N/A   Mostly Cloudy
2:15 AM 77.0 °F - 73.4 °F 89% 29.88 in 7.0 mi ENE 8.1 mph - N/A   Mostly Cloudy
2:35 AM 77.0 °F - 73.4 °F 89% 29.88 in 7.0 mi ENE 8.1 mph - N/A Thunderstorm Overcast
2:55 AM 77.0 °F - 73.4 °F 89% 29.87 in 6.0 mi ENE 9.2 mph - N/A   Overcast
3:15 AM 77.0 °F - 73.4 °F 89% 29.87 in 6.0 mi ENE 8.1 mph - N/A Thunderstorm Overcast
3:35 AM 71.6 °F - 66.2 °F 83% 29.89 in 2.0 mi North 12.7 mph 16.1 mph 1.11 in Thunderstorm Thunderstorm
3:55 AM 71.6 °F - 66.2 °F 83% 29.86 in 7.0 mi NNE 11.5 mph - 1.67 in Thunderstorm Thunderstorm
4:15 AM 71.6 °F - 68.0 °F 88% - 10.0 mi NNE 6.9 mph - 0.04 in Thunderstorm Thunderstorm
4:35 AM 73.4 °F - 69.8 °F 88% - 10.0 mi East 6.9 mph - 0.06 in   Scattered Clouds
4:55 AM 73.4 °F - 69.8 °F 88% - 10.0 mi East 8.1 mph - 0.06 in   Clear
5:15 AM 75.2 °F - 71.6 °F 89% - 7.0 mi East 8.1 mph - 0.02 in   Mostly Cloudy
5:35 AM 73.4 °F - 71.6 °F 94% - 8.0 mi ESE 6.9 mph - 0.06 in   Mostly Cloudy
5:55 AM 75.2 °F - 71.6 °F 89% - 7.0 mi East 4.6 mph - 0.06 in   Mostly Cloudy
6:15 AM 75.2 °F - 71.6 °F 89% - 3.0 mi East 6.9 mph - 0.10 in   Overcast
6:35 AM 75.2 °F - 73.4 °F 94% - 3.0 mi ESE 3.5 mph - 0.14 in   Overcast
6:55 AM 75.2 °F - 73.4 °F 94% - 4.0 mi SSE 4.6 mph - 0.14 in   Overcast
7:15 AM 75.2 °F - 71.6 °F 89% - 6.0 mi SSE 4.6 mph - N/A   Overcast
7:35 AM 75.2 °F - 71.6 °F 89% - 6.0 mi Calm Calm - N/A   Overcast
7:55 AM 75.2 °F - 71.6 °F 89% - 7.0 mi ESE 3.5 mph - N/A Thunderstorm Thunderstorm
8:15 AM 75.2 °F - 73.4 °F 94% - 2.5 mi Calm Calm - 0.03 in Thunderstorm Overcast
8:35 AM 75.2 °F - 73.4 °F 94% - 6.0 mi East 3.5 mph - 0.04 in   Overcast
8:55 AM 75.2 °F - 73.4 °F 94% - 7.0 mi East 3.5 mph - 0.04 in   Mostly Cloudy
9:15 AM 77.0 °F - 73.4 °F 89% - 5.0 mi ENE 4.6 mph - N/A   Mostly Cloudy
9:35 AM 77.0 °F - 73.4 °F 89% - 7.0 mi East 4.6 mph - N/A   Overcast
9:55 AM 78.8 °F - 73.4 °F 83% - 10.0 mi Calm Calm - N/A   Overcast
10:15 AM 78.8 °F - 73.4 °F 83% - 10.0 mi Calm Calm - N/A   Overcast
10:35 AM 80.6 °F 85.4 °F 73.4 °F 79% - - Calm Calm - N/A   Mostly Cloudy
10:55 AM 78.8 °F - 73.4 °F 83% 29.87 in - WNW 4.6 mph - N/A   Overcast
11:15 AM 80.6 °F 85.4 °F 73.4 °F 79% 29.87 in - West 6.9 mph - N/A   Overcast
11:35 AM 78.8 °F - 73.4 °F 83% 29.86 in - North 4.6 mph - N/A   Overcast
11:55 AM 78.8 °F - 73.4 °F 83% 29.87 in - North 3.5 mph - N/A   Overcast
12:15 PM 78.8 °F - 73.4 °F 83% 29.89 in 10.0 mi North 9.2 mph - N/A   Overcast
12:35 PM 78.8 °F - 71.6 °F 78% 29.89 in 10.0 mi North 6.9 mph - N/A   Overcast
12:55 PM 77.0 °F - 71.6 °F 83% 29.90 in 10.0 mi NNW 5.8 mph - N/A   Overcast
1:15 PM 75.2 °F - 71.6 °F 89% 29.90 in 10.0 mi North 6.9 mph - N/A   Overcast
1:35 PM 77.0 °F - 71.6 °F 83% 29.89 in 10.0 mi North 8.1 mph - N/A   Overcast
1:55 PM 75.2 °F - 69.8 °F 83% 29.90 in 10.0 mi North 10.4 mph - N/A   Overcast
2:15 PM 75.2 °F - 69.8 °F 83% 29.89 in 10.0 mi North 8.1 mph - N/A   Mostly Cloudy
2:35 PM 75.2 °F - 69.8 °F 83% 29.90 in 10.0 mi North 9.2 mph - N/A   Partly Cloudy
2:55 PM 77.0 °F - 69.8 °F 78% 29.90 in 10.0 mi North 8.1 mph - N/A   Mostly Cloudy
3:15 PM 75.2 °F - 69.8 °F 83% 29.91 in 10.0 mi North 12.7 mph - N/A   Overcast
3:35 PM 73.4 °F - 68.0 °F 83% 29.91 in 10.0 mi NNE 9.2 mph 17.3 mph N/A   Overcast
3:55 PM 73.4 °F - 68.0 °F 83% 29.91 in 10.0 mi NNE 10.4 mph - N/A   Overcast
4:15 PM 73.4 °F - 68.0 °F 83% - 10.0 mi NNE 13.8 mph 17.3 mph N/A   Overcast
4:35 PM 73.4 °F - 68.0 °F 83% 29.90 in 10.0 mi NNE 15.0 mph 19.6 mph N/A   Overcast
4:55 PM 73.4 °F - 66.2 °F 78% 29.91 in 10.0 mi NE 17.3 mph 23.0 mph N/A   Overcast
5:15 PM 73.4 °F - 66.2 °F 78% 29.90 in 10.0 mi NE 13.8 mph 23.0 mph N/A   Overcast
5:35 PM 73.4 °F - 66.2 °F 78% 29.90 in 10.0 mi NE 16.1 mph 31.1 mph N/A   Overcast
5:55 PM 71.6 °F - 66.2 °F 83% 29.90 in 10.0 mi NE 16.1 mph 23.0 mph N/A   Overcast
6:15 PM 71.6 °F - 64.4 °F 78% 29.90 in 10.0 mi NE 21.9 mph 31.1 mph N/A   Overcast
6:35 PM 71.6 °F - 64.4 °F 78% 29.91 in 10.0 mi NE 16.1 mph 26.5 mph N/A   Overcast
6:55 PM 71.6 °F - 64.4 °F 78% 29.92 in 10.0 mi NE 17.3 mph 24.2 mph N/A   Overcast
7:15 PM 71.6 °F - 64.4 °F 78% 29.93 in 10.0 mi ENE 16.1 mph 25.3 mph N/A   Overcast
7:35 PM 69.8 °F - 62.6 °F 78% 29.94 in 10.0 mi NE 18.4 mph 27.6 mph N/A   Overcast
7:55 PM 69.8 °F - 62.6 °F 78% 29.94 in 10.0 mi NE 18.4 mph 32.2 mph N/A   Overcast
8:15 PM 69.8 °F - 62.6 °F 78% 29.95 in 10.0 mi NE 15.0 mph 28.8 mph N/A   Overcast
8:35 PM 69.8 °F - 62.6 °F 78% 29.96 in 10.0 mi ENE 17.3 mph 25.3 mph N/A   Overcast
8:55 PM 69.8 °F - 62.6 °F 78% 29.97 in 10.0 mi NE 18.4 mph 26.5 mph N/A   Overcast
9:15 PM 69.8 °F - 62.6 °F 78% 29.98 in 10.0 mi NE 18.4 mph 28.8 mph N/A   Overcast
9:35 PM 69.8 °F - 62.6 °F 78% 29.98 in 10.0 mi NE 16.1 mph 29.9 mph N/A   Overcast
9:55 PM 69.8 °F - 62.6 °F 78% 29.99 in 10.0 mi NE 18.4 mph 25.3 mph N/A   Overcast
10:15 PM 69.8 °F - 62.6 °F 78% 29.98 in 10.0 mi NE 17.3 mph 24.2 mph N/A   Overcast
10:35 PM 69.8 °F - 62.6 °F 78% 29.99 in 10.0 mi NE 15.0 mph 25.3 mph N/A   Overcast
10:55 PM 69.8 °F - 62.6 °F 78% - 9.0 mi NE 12.7 mph 18.4 mph N/A   Overcast
11:15 PM 68.0 °F - 64.4 °F 88% - 10.0 mi NE 16.1 mph 20.7 mph N/A   Overcast
11:35 PM 68.0 °F - 64.4 °F 88% 29.98 in 6.0 mi NE 15.0 mph 19.6 mph N/A   Overcast
11:55 PM 68.0 °F - 64.4 °F 88% 29.98 in 7.0 mi ENE 12.7 mph 17.3 mph N/A   Overcast